Showing default

METEOR 1-11, 5917

Orbit data source: Space-Track

METEOR 1-11, 5917 is a Commonwealth of Independent States-origin payload satellite in LEO that was launched on Thu, 30 Mar 1972 UTC via a VOSTOK 8A92M launch vehicle from the Plesetsk Missile And Space Complex (PKMTR). Payload-class satellites include a variety of spacecraft equipped with specific instruments for various scientific and technological missions. These include communications satellites like Starlink; space stations such as the ISS; scientific satellites like the Hubble; Earth observation satellites from companies like Planet Labs, Umbra, and HawkEye 360; GPS; miniature CubeSats for education and research; and military/defense satellites.

Loading next visibility...
Identifier
5917, 1972-022A
Orbit
LEO
Country
Flag of CISCIS
Related business
Manufacturer
VNIIEM
Mission
Defense Weather
Bus & Motor
METEOR, Unknown motor
Mass
1,280 kg wet, 1,280 kg dry
Launch date (UTC)
1972-03-30 (53 years ago)
Launch vehicle
VOSTOK 8A92M
Launch site
Plesetsk Missile And Space Complex (PKMTR)
Object type
Payload
Rocket body
Debris
Shape & HBR
Cyl + 2 Pan, 2.3 m
Radar Cross Section
5.718 m², Large (>1 m²)

Expand to show TLE details & history
Last TLE update: 17 hours ago

TLE from 17 hours ago
0 METEOR 1-11
1 05917U 72022A   25260.20693603  .00000295  00000-0  16109-3 0  9995
2 05917  81.2281 191.0505 0042567  20.6373 339.6504 14.09185705745996
Epoch: 2025-09-17T04:57Z
TLE epoch observation values (Epoch: 2025-09-17T04:57:59.273Z)
Latitude
-0°
Longitude
120.16733°
Altitude
836.171 km
Speed
7.45 km/s
True Right ascension
12h 44m 12s
True Declination
0° 00' 00"
Sunlit
Object was in daylight at epoch
Visualization orbit readout
Latitude
Unknown
Longitude
Unknown
Altitude
Unknown
Speed
Unknown
Apparent Right ascension
Unknown
Apparent Declination
Unknown
Sunlit
N/A
Visualization observer readout
Local Sidereal Time
15:00:28
Azimuth
Unknown
Elevation
Unknown
Doppler factor
Unknown
Orbital elements
Apogee altitude
890.143 km
Perigee altitude
828.528 km
Semi-major axis
7,237.473 km
Eccentricity
0.00426
Inclination
81.2281°
RAAN
191.0505°
Arg. of periapsis
20.6373°
True anomaly
339.47993°
Mean anomaly
339.6504°
Eccentric anomaly
339.56525°
Mean motion
3.52503 °/min
Orbital period
102.13 mins
BSTAR
0.00016109
Loading maneuver chart data...
Computing Atmospheric mass density...
Loading historical data...
Loading historical data...
Loading historical data...
Loading historical data...
Loading historical data...
Loading historical data...
Loading historical data...

Documentation

Showing up to 5 results
|